Elefsis, Greece

9:21 AM EET on December 12, 2017 (GMT +0200)
Elefsis Air Base

Weather History for LGEL - October, 2011

Change the Weather History Date:

Sunday, October 30, 2011

  Actual Average Record
Temperature  
Mean Temperature 58 °F -  
Max Temperature 62 °F 63 °F 77 °F (2004)
Min Temperature 55 °F 49 °F 46 °F (2010)
Degree Days  
Heating Degree Days 6    
Growing Degree Days 8 (Base 50)    
Moisture  
Dew Point 40 °F    
Average Humidity 51    
Maximum Humidity 63    
Minimum Humidity 42    
Precipitation  
Precipitation 0.00 in - - ()
Sea Level Pressure  
Sea Level Pressure 30.22 in    
Wind  
Wind Speed 10 mph ()    
Max Wind Speed 16 mph    
Max Gust Speed 30 mph    
Visibility 6.2 miles    
Events      
Averages and records for this station are not official NWS values.
T = Trace of Precipitation, MM = Missing Value Source: Averaged Metar Reports

Daily Weather History Graph

Daily Weather History Graph

Search for Another Location

Airport or City:

Trip Planner

Search our weather history database for the weather conditions in past years. The results will help you decide how hot, cold, wet, or windy it might be!

Date:

Astronomy

Oct. 30, 2011 Rise Set
Actual Time 6:48 AM EET 5:29 PM EET
Civil Twilight 6:21 AM EET 5:56 PM EET
Nautical Twilight 5:50 AM EET 6:27 PM EET
Astronomical Twilight 5:20 AM EET 6:58 PM EET
Moon 10:48 AM EET (10/30) 8:40 PM EET (10/30)
Length of Visible Light 11h 34m
Length of Day
10h 40m
Waxing Crescent, 18% of the Moon is Illuminated
Oct 30
Waxing Crescent
Nov 2
First Quarter
Nov 10
Full
Nov 18
Last Quarter
Nov 25
New

Hourly Weather History & Observations

Time (EET) Temp. Dew Point Humidity Pressure Visibility Wind Dir Wind Speed Gust Speed Precip Events Conditions
12:20 AM 57.2 °F 39.2 °F 51% 30.24 in 6.2 mi NNW 11.5 mph - N/A   Scattered Clouds
12:50 AM 57.2 °F 39.2 °F 51% 30.24 in 6.2 mi NNW 11.5 mph - N/A   Scattered Clouds
1:20 AM 57.2 °F 39.2 °F 51% 30.24 in 6.2 mi NNW 11.5 mph - N/A   Scattered Clouds
1:50 AM 57.2 °F 39.2 °F 51% 30.24 in 6.2 mi NNW 11.5 mph - N/A   Mostly Cloudy
2:20 AM 57.2 °F 39.2 °F 51% 30.24 in 6.2 mi NNW 10.4 mph - N/A   Mostly Cloudy
2:50 AM 57.2 °F 39.2 °F 51% 30.24 in 6.2 mi NW 10.4 mph - N/A   Scattered Clouds
3:20 AM 57.2 °F 39.2 °F 51% 30.24 in 6.2 mi NNW 10.4 mph - N/A   Scattered Clouds
3:50 AM 57.2 °F 39.2 °F 51% 30.24 in 6.2 mi NNW 9.2 mph - N/A   Mostly Cloudy
3:20 AM 57.2 °F 39.2 °F 51% 30.24 in 6.2 mi NNW 12.7 mph - N/A   Mostly Cloudy
3:50 AM 55.4 °F 39.2 °F 54% 30.21 in 6.2 mi NNW 9.2 mph - N/A   Scattered Clouds
4:20 AM 55.4 °F 39.2 °F 54% 30.21 in 6.2 mi North 6.9 mph - N/A   Scattered Clouds
4:50 AM 57.2 °F 39.2 °F 51% 30.21 in 6.2 mi North 6.9 mph - N/A   Mostly Cloudy
5:20 AM 57.2 °F 39.2 °F 51% 30.21 in 6.2 mi North 9.2 mph - N/A   Mostly Cloudy
5:50 AM 57.2 °F 37.4 °F 48% 30.21 in 6.2 mi North 8.1 mph - N/A   Mostly Cloudy
6:20 AM 57.2 °F 37.4 °F 48% 30.21 in 6.2 mi North 8.1 mph - N/A   Scattered Clouds
6:50 AM 55.4 °F 37.4 °F 51% 30.21 in 6.2 mi North 6.9 mph - N/A   Scattered Clouds
7:20 AM 55.4 °F 37.4 °F 51% 30.21 in 6.2 mi NNW 5.8 mph - N/A   Scattered Clouds
7:50 AM 55.4 °F 35.6 °F 47% 30.24 in 6.2 mi North 6.9 mph - N/A   Scattered Clouds
8:20 AM 55.4 °F 37.4 °F 51% 30.24 in 6.2 mi North 8.1 mph - N/A   Scattered Clouds
8:50 AM 57.2 °F 37.4 °F 48% 30.24 in 6.2 mi North 8.1 mph - N/A   Scattered Clouds
9:20 AM 59.0 °F 37.4 °F 45% 30.24 in 6.2 mi NNW 11.5 mph - N/A   Scattered Clouds
9:50 AM 59.0 °F 39.2 °F 48% 30.24 in 6.2 mi North 10.4 mph - N/A   Mostly Cloudy
10:20 AM 60.8 °F 39.2 °F 45% 30.24 in 6.2 mi North 10.4 mph - N/A   Mostly Cloudy
10:50 AM 60.8 °F 37.4 °F 42% 30.24 in 6.2 mi NNW 16.1 mph - N/A   Mostly Cloudy
11:20 AM 60.8 °F 37.4 °F 42% 30.24 in 6.2 mi North 13.8 mph - N/A   Mostly Cloudy
11:50 AM 62.6 °F 39.2 °F 42% 30.24 in 6.2 mi North 16.1 mph 29.9 mph N/A   Mostly Cloudy
12:20 PM 62.6 °F 39.2 °F 42% 30.24 in 6.2 mi NNW 16.1 mph 27.6 mph N/A   Mostly Cloudy
12:50 PM 60.8 °F 39.2 °F 45% 30.21 in 6.2 mi NNW 15.0 mph 26.5 mph N/A   Mostly Cloudy
1:20 PM 60.8 °F 41.0 °F 48% 30.21 in 6.2 mi NNW 12.7 mph 24.2 mph N/A   Mostly Cloudy
1:50 PM 60.8 °F 41.0 °F 48% 30.21 in 6.2 mi NNW 12.7 mph 24.2 mph N/A   Mostly Cloudy
2:20 PM 62.6 °F 41.0 °F 45% 30.21 in 6.2 mi NNW 15.0 mph 26.5 mph N/A   Mostly Cloudy
2:50 PM 60.8 °F 41.0 °F 48% 30.21 in 6.2 mi North 12.7 mph 24.2 mph N/A   Mostly Cloudy
3:20 PM 60.8 °F 41.0 °F 48% 30.21 in 6.2 mi NNW 15.0 mph 26.5 mph N/A   Mostly Cloudy
3:50 PM 60.8 °F 41.0 °F 48% 30.21 in 6.2 mi NNW 15.0 mph 26.5 mph N/A   Mostly Cloudy
4:20 PM 60.8 °F 41.0 °F 48% 30.21 in 6.2 mi NNW 13.8 mph 25.3 mph N/A   Mostly Cloudy
4:50 PM 59.0 °F 41.0 °F 51% 30.18 in 6.2 mi NNW 10.4 mph 21.9 mph N/A   Scattered Clouds
5:20 PM 57.2 °F 42.8 °F 59% 30.18 in 6.2 mi NW 10.4 mph - N/A   Scattered Clouds
5:50 PM 57.2 °F 41.0 °F 55% 30.18 in 6.2 mi NW 11.5 mph - N/A   Scattered Clouds
6:20 PM 57.2 °F 42.8 °F 59% 30.18 in 6.2 mi NNW 10.4 mph - N/A   Scattered Clouds
6:50 PM 55.4 °F 42.8 °F 63% 30.21 in 6.2 mi NNW 13.8 mph - N/A   Scattered Clouds
7:20 PM 55.4 °F 42.8 °F 63% 30.21 in 6.2 mi NNW 11.5 mph - N/A   Scattered Clouds
7:50 PM 55.4 °F 42.8 °F 63% 30.21 in 6.2 mi NW 10.4 mph - N/A   Scattered Clouds
8:20 PM 55.4 °F 42.8 °F 63% 30.21 in 6.2 mi NNW 10.4 mph - N/A   Scattered Clouds
8:50 PM 55.4 °F 42.8 °F 63% 30.21 in 6.2 mi NNW 11.5 mph - N/A   Partly Cloudy
9:20 PM 55.4 °F 42.8 °F 63% 30.21 in 6.2 mi NNW 10.4 mph - N/A   Partly Cloudy
9:50 PM 55.4 °F 41.0 °F 58% 30.21 in 6.2 mi NNW 9.2 mph - N/A   Partly Cloudy
10:20 PM 55.4 °F 41.0 °F 58% 30.21 in 6.2 mi NNW 9.2 mph - N/A   Partly Cloudy
10:50 PM 55.4 °F 39.2 °F 54% 30.21 in 6.2 mi NNW 8.1 mph - N/A   Partly Cloudy